Flag for United Kingdom Weather past 2 weeks in Watford, England, United Kingdom

Now
59 °F

Overcast.


Feels Like: 58 °F
Forecast: 49 / 65 °F
Wind: 7 mph from North

Location: Northolt

Current Time: May 23, 2015 at 4:02:47 AM

Latest Report: May 23, 2015 at 2:50 AM


Visibility: N/A

Pressure: 30.24 "Hg

Humidity: 77%

Dew point: 52 °F

Location of WatfordLocation

Historic Weather in Watford — Graph

°F

Watford temperature yesterday

Maximum temperature yesterday: 66 °F (at 5:50 PM)
Minimum temperature yesterday: 45 °F (at 4:50 AM)
Average temperature yesterday: 57 °F

Past Weeks' High & Low Weather Summary

 TemperatureHumidityPressure
High70 °F (May 11, 2:50 PM)100% (May 10, 4:50 AM)30.36 "Hg (May 10, 4:50 AM)
Low39 °F (May 20, 3:50 AM)28% (May 13, 2:50 PM)29.56 "Hg (May 18, 12:50 PM)
Average54 °F70%30.05 "Hg
* Reported May 8 1:50 AM — May 23 1:50 AM, Watford, Weather by CustomWeather, © 2015

Note: Actual official high and low records may vary slightly from our data, if they occured in-between our weather recording intervals... More about our weather records

Advertising

Watford weather history for previous 24 hours

 ConditionsComfort  
Time TempWeatherWind HumidityBarometerVisibility
1:50 AM
Sat, May 23
59 °FOvercast.6 mph77%30.24 "HgN/A
12:50 AM61 °FPassing clouds.7 mph72%30.24 "HgN/A
11:50 PM
Fri, May 22
61 °FPassing clouds.9 mph77%30.24 "HgN/A
10:50 PM63 °FPassing clouds.5 mph73%30.21 "HgN/A
9:50 PM63 °FPartly sunny.5 mph73%30.21 "HgN/A
8:50 PM64 °FPartly sunny.5 mph68%30.21 "HgN/A
7:50 PM64 °FBroken clouds.5 mph68%30.21 "HgN/A
6:50 PM66 °FPartly sunny.6 mph68%30.21 "HgN/A
5:50 PM66 °FBroken clouds.6 mph64%30.21 "HgN/A
4:50 PM64 °FBroken clouds.6 mph68%30.21 "HgN/A
3:50 PM63 °FPartly sunny.7 mph73%30.24 "HgN/A
2:50 PM63 °FPartly sunny.9 mph73%30.24 "HgN/A
1:50 PM61 °FMostly cloudy.10 mph83%30.24 "HgN/A
12:50 PM61 °FBroken clouds.10 mph83%30.27 "HgN/A
11:50 AM61 °FLight rain. Broken clouds.10 mph83%30.27 "HgN/A
10:50 AM61 °FPartly sunny.8 mph72%30.27 "HgN/A
9:50 AM57 °FSunny.7 mph67%30.30 "Hg10 mi
8:50 AM55 °FSunny.5 mph72%30.30 "Hg10 mi
7:50 AM50 °FSunny.8 mph82%30.30 "Hg10 mi
6:50 AM48 °FSunny.6 mph87%30.30 "Hg10 mi
5:50 AM46 °FPassing clouds.3 mph87%30.30 "HgN/A
4:50 AM45 °FClear.3 mph93%30.30 "HgN/A
Weather by CustomWeather, © 2015

See weather overviewHow to use our weather pages